Weather History for PAFA - December, 2012

Change the Weather History Date:

Wednesday, December 5, 2012

  Actual Average Record
Temperature  
Mean Temperature -23 °F -3 °F  
Max Temperature -17 °F 6 °F 58 °F (1934)
Min Temperature -30 °F -11 °F -55 °F (1905)
Degree Days  
Heating Degree Days 88 68  
Month to date heating degree days 477 337  
Since 1 July heating degree days 4966 4468  
Cooling Degree Days 0 0  
Month to date cooling degree days 0 0  
Year to date cooling degree days 34 61  
Moisture  
Dew Point -29 °F    
Average Humidity 70    
Maximum Humidity 77    
Minimum Humidity 55    
Precipitation  
Precipitation T in 0.01 in 0.29 in (1929)
Month to date precipitation T 0.09  
Year to date precipitation 9.43 10.26  
Snow  
Snow 0.10 in 0.30 in 5.20 in (1929)
Month to date snowfall 0.1 1.8  
Since 1 July snowfall 11.4 27.6  
Snow Depth 6.00 in    
Sea Level Pressure  
Sea Level Pressure 29.94 in    
Wind  
Wind Speed 0 mph (North)    
Max Wind Speed 0 mph    
Max Gust Speed -    
Visibility 8 miles    
Events Fog , Snow    
T = Trace of Precipitation, MM = Missing Value Source: NWS Daily Summary

Daily Weather History Graph

Daily Weather History Graph

Search for Another Location

Airport or City:

Trip Planner

Search our weather history database for the weather conditions in past years. The results will help you decide how hot, cold, wet, or windy it might be!

Date:

Astronomy

Dec. 05, 2012 Rise Set
Actual Time 10:32 AM AKST 2:52 PM AKST
Civil Twilight 9:13 AM AKST 4:10 PM AKST
Nautical Twilight 8:04 AM AKST 5:19 PM AKST
Astronomical Twilight 7:03 AM AKST 6:20 PM AKST
Moon No Moon Rise 12:51 PM AKST (12/5)
Length of Visible Light 6h 56m
Length of Day
4h 20m
Waning Gibbous, 58% of the Moon is Illuminated
Dec 5
Waning Gibbous
Dec 6
Last Quarter
Dec 12
New
Dec 19
First Quarter
Dec 28
Full

Hourly Weather History & Observations

Time (AKST) Temp. Dew Point Humidity Pressure Visibility Wind Dir Wind Speed Gust Speed Precip Events Conditions
12:53 AM -29.0 °F -36.0 °F 69% 29.91 in 10.0 mi Calm Calm - N/A   Scattered Clouds
1:53 AM -26.0 °F -32.1 °F 73% 29.92 in 8.0 mi Calm Calm - N/A Snow Light Snow
2:53 AM -25.1 °F -31.0 °F 74% 29.92 in 10.0 mi Calm Calm - N/A   Mostly Cloudy
3:53 AM -24.0 °F -31.0 °F 70% 29.92 in 10.0 mi Calm Calm - N/A   Mostly Cloudy
5:53 AM -22.0 °F -27.0 °F 77% 29.92 in 6.0 mi Calm Calm - N/A Snow Light Snow
6:53 AM -20.0 °F -27.9 °F 67% 29.92 in 4.0 mi Calm Calm - N/A Snow Light Snow
7:53 AM -20.0 °F -26.0 °F 74% 29.93 in 5.0 mi Calm Calm - N/A Snow Light Snow
8:53 AM -20.9 °F -27.9 °F 70% 29.93 in 6.0 mi Calm Calm - N/A Snow Light Snow
9:53 AM -24.0 °F -29.9 °F 74% 29.93 in 7.0 mi Calm Calm - N/A Snow Light Snow
10:53 AM -26.0 °F -33.0 °F 69% 29.94 in 10.0 mi Calm Calm - N/A   Scattered Clouds
11:53 AM -26.0 °F -33.0 °F 69% 29.94 in 10.0 mi Calm Calm - N/A Fog Scattered Clouds
12:53 PM -26.0 °F -32.1 °F 73% 29.95 in 10.0 mi Calm Calm - N/A   Scattered Clouds
1:53 PM -26.0 °F -32.1 °F 73% 29.96 in 10.0 mi Calm Calm - N/A Fog Scattered Clouds
2:53 PM -26.0 °F -31.0 °F 77% 29.96 in 10.0 mi Calm Calm - N/A   Scattered Clouds
3:53 PM -26.0 °F -33.0 °F 69% 29.96 in 10.0 mi Calm Calm - N/A   Scattered Clouds
4:53 PM -22.0 °F -29.0 °F 70% 29.96 in 6.0 mi Calm Calm - N/A   Scattered Clouds
5:53 PM -23.1 °F -29.0 °F 74% 29.95 in 6.0 mi Calm Calm - N/A   Scattered Clouds
6:53 PM -24.0 °F -29.9 °F 74% 29.95 in 7.0 mi Calm Calm - N/A   Mostly Cloudy
7:53 PM -22.0 °F -29.0 °F 70% 29.96 in 7.0 mi Calm Calm - N/A   Mostly Cloudy
8:53 PM -20.9 °F -27.0 °F 73% 29.96 in 7.0 mi Calm Calm - N/A   Mostly Cloudy
9:53 PM -18.9 °F -25.1 °F 74% 29.96 in 4.0 mi Calm Calm - N/A Snow Light Snow
10:53 PM -18.0 °F -24.0 °F 74% 29.97 in 6.0 mi Calm Calm - N/A   Mostly Cloudy
11:53 PM -17.0 °F -23.1 °F 74% 29.97 in 10.0 mi Calm Calm - N/A   Mostly Cloudy